Temperature
1 1 1 1 1 1 1 0 0 -0 0 0 0 1 1 1 2 2 2 2 2 2 1 1 1 1 1 1 1 1 2 3 3 4 4 5 5 5
1 1 1 1 0 0 0 -0 -0 -0 -1 -0 -0 -0 -0 -0 0 0 1 1 1 1 1 0 0 -0 -0 0 0 1 1 1 2 3 3 4 4 5
0 -0 -0 -0 -0 -0 -1 -1 -1 -1 -1 -1 -1 -1 -1 -1 -1 -1 -0 -0 -0 -0 -0 -0 -0 -1 -1 -1 -0 -0 0 1 1 2 2 3 3 4
-1 -1 -1 -1 -1 -1 -1 -1 -1 -1 -2 -2 -2 -2 -2 -2 -2 -2 -1 -1 -1 -1 -1 -1 -1 -1 -1 -1 -1 -1 -0 -0 0 1 1 2 2 3
-2 -2 -2 -2 -2 -2 -2 -2 -2 -2 -2 -2 -2 -2 -2 -2 -2 -2 -2 -2 -2 -2 -2 -2 -2 -2 -2 -2 -2 -1 -1 -1 -0 -0 0 1 1 2
-2 -2 -3 -3 -3 -3 -3 -3 -3 -3 -3 -3 -3 -3 -3 -3 -3 -3 -3 -2 -2 -2 -2 -2 -2 -2 -2 -2 -2 -2 -2 -2 -1 -1 -0 -0 0 1
-3 -3 -3 -3 -3 -3 -3 -3 -3 -3 -3 -3 -3 -3 -3 -3 -3 -3 -3 -3 -3 -3 -3 -2 -2 -3 -3 -2 -3 -2 -2 -2 -2 -1 -1 -1 -0 -0
-3 -3 -4 -4 -4 -4 -4 -3 -3 -3 -3 -3 -3 -3 -3 -3 -3 -3 -3 -3 -3 -3 -3 -3 -3 -3 -3 -3 -3 -3 -3 -3 -2 -2 -2 -1 -1 -1
-4 -4 -4 -4 -5 -5 -4 -4 -4 -4 -4 -4 -4 -3 -3 -3 -3 -3 -3 -4 -3 -3 -4 -4 -3 -3 -3 -3 -3 -3 -3 -3 -3 -3 -2 -2 -2 -1
-4 -4 -5 -5 -5 -5 -5 -5 -4 -4 -4 -4 -4 -4 -4 -4 -4 -4 -4 -4 -4 -4 -4 -4 -4 -4 -4 -4 -4 -4 -4 -4 -4 -3 -3 -3 -2 -2
-5 -5 -5 -5 -5 -5 -5 -5 -5 -4 -4 -4 -4 -4 -4 -4 -4 -4 -4 -4 -4 -4 -4 -4 -4 -4 -4 -4 -4 -4 -4 -4 -4 -4 -4 -3 -3 -3
-5 -5 -5 -5 -5 -5 -5 -5 -5 -5 -5 -4 -4 -4 -4 -4 -4 -4 -4 -4 -4 -4 -4 -4 -4 -5 -5 -4 -4 -4 -4 -4 -4 -4 -4 -4 -4 -3
-5 -5 -5 -6 -6 -5 -5 -5 -5 -5 -5 -5 -5 -4 -4 -4 -4 -4 -4 -5 -5 -5 -4 -5 -4 -5 -5 -5 -5 -4 -4 -4 -5 -5 -5 -4 -4 -4
-6 -6 -6 -6 -6 -6 -5 -5 -5 -5 -5 -5 -5 -5 -5 -5 -5 -5 -5 -5 -5 -5 -5 -5 -5 -5 -5 -5 -5 -5 -5 -5 -5 -5 -5 -5 -5 -4
-6 -6 -6 -6 -6 -6 -6 -6 -6 -6 -6 -6 -6 -6 -5 -5 -5 -5 -5 -5 -5 -5 -5 -5 -5 -5 -5 -5 -6 -5 -5 -5 -5 -5 -5 -5 -5 -5
-6 -6 -6 -6 -6 -7 -7 -6 -6 -6 -6 -6 -6 -6 -6 -6 -6 -6 -6 -6 -6 -6 -5 -6 -6 -6 -6 -6 -6 -6 -6 -6 -5 -5 -5 -5 -5 -5
-6 -6 -7 -7 -7 -7 -7 -7 -7 -7 -7 -7 -7 -7 -7 -6 -6 -6 -6 -6 -6 -6 -6 -6 -6 -6 -6 -6 -6 -6 -6 -6 -6 -6 -6 -6 -6 -6
-7 -7 -7 -7 -7 -7 -7 -7 -7 -7 -7 -7 -7 -7 -7 -7 -7 -7 -7 -7 -7 -7 -7 -6 -7 -7 -7 -7 -7 -7 -6 -6 -6 -6 -6 -6 -6 -6
-7 -7 -8 -8 -8 -8 -8 -8 -8 -8 -8 -8 -7 -7 -7 -7 -7 -7 -7 -7 -7 -7 -7 -7 -7 -7 -7 -7 -7 -7 -7 -7 -7 -7 -7 -7 -7 -6
-8 -8 -8 -8 -8 -8 -8 -8 -8 -8 -8 -8 -8 -8 -8 -8 -8 -8 -8 -8 -7 -7 -7 -7 -7 -7 -7 -7 -7 -7 -7 -7 -7 -7 -7 -7 -7 -7
-8 -8 -8 -8 -8 -9 -9 -9 -8 -8 -8 -8 -8 -8 -8 -8 -8 -8 -8 -8 -8 -8 -8 -7 -7 -7 -7 -8 -8 -8 -7 -7 -8 -8 -8 -8 -8 -8
-9 -9 -9 -9 -9 -9 -9 -9 -9 -9 -9 -9 -9 -9 -9 -9 -9 -8 -8 -8 -8 -8 -8 -8 -8 -8 -8 -8 -8 -8 -8 -8 -8 -8 -8 -8 -8 -8
-9 -9 -9 -9 -9 -9 -9 -9 -9 -9 -9 -9 -9 -9 -9 -9 -9 -9 -9 -8 -8 -8 -8 -8 -8 -8 -8 -8 -8 -8 -8 -8 -8 -9 -9 -8 -9 -9
Wind_Speed
10 11 11 9 9 9 9 9 12 19 18 10 7 7 7 11 16 15 15 24 29 29 29 30 30 31 32 33 34 35 36 36 36 36 37 38 38 38
9 11 11 10 9 8 9 9 10 14 20 11 7 8 9 10 21 18 15 24 27 28 28 28 29 30 31 32 33 34 35 36 36 37 37 37 37 37
11 11 12 11 9 8 9 9 10 11 18 16 8 8 10 11 12 12 15 13 16 27 29 29 29 30 30 31 32 33 34 35 35 36 37 37 37 37
11 11 12 11 11 10 9 11 11 11 14 20 13 8 10 10 10 11 11 12 11 24 29 30 30 30 30 30 31 31 32 33 34 35 36 37 37 36
12 12 12 12 13 11 11 12 11 12 11 15 17 10 9 9 11 11 13 11 12 20 25 28 29 30 30 30 30 30 31 32 33 33 33 34 35 35
12 13 13 13 14 14 14 14 13 13 12 14 16 13 11 9 9 10 11 10 12 12 17 20 24 28 28 29 29 29 29 30 31 32 32 30 30 31
13 13 14 19 23 21 17 13 13 14 14 14 15 14 12 9 10 9 13 10 10 10 9 11 11 10 12 20 24 26 27 29 30 31 31 30 29 29
13 13 14 18 22 27 29 28 24 18 15 14 15 15 14 12 11 11 11 12 12 6 9 11 9 9 8 8 19 25 25 26 27 29 30 30 29 29
13 13 14 15 21 14 21 27 25 29 27 19 17 16 14 11 11 13 12 13 14 6 6 10 8 10 8 12 22 23 24 25 25 26 27 28 29 29
12 13 14 14 15 17 14 14 15 16 19 16 14 14 14 12 12 14 14 14 13 9 9 11 9 9 9 8 18 22 22 23 23 24 24 24 25 26
12 13 14 13 22 26 18 15 16 14 20 25 25 24 26 26 20 12 11 11 12 9 8 8 7 7 7 7 12 21 22 22 23 23 23 23 23 22
11 11 19 21 25 26 16 14 16 15 13 14 17 19 17 18 22 13 9 11 9 7 7 8 7 5 5 6 7 8 11 18 22 22 22 22 22 13
12 10 10 23 26 27 23 15 19 19 13 12 12 11 10 9 10 9 9 10 11 9 5 6 6 6 6 3 4 7 7 7 8 11 16 20 21 16
12 10 12 25 27 28 22 21 27 23 10 10 10 9 8 8 8 8 9 11 11 11 7 7 6 6 6 5 4 4 5 6 6 6 6 13 17 20
13 21 25 28 27 19 21 26 21 11 9 10 9 9 7 7 7 6 7 8 8 8 8 9 8 7 7 7 5 4 4 4 6 6 6 7 7 7
14 19 25 25 20 20 18 15 9 9 9 9 8 7 6 6 7 6 6 6 6 6 7 9 9 9 8 8 7 5 5 5 5 6 6 5 5 6
16 12 9 9 8 8 8 9 8 8 9 7 7 7 7 7 6 5 5 5 6 6 6 6 7 8 9 7 7 7 6 5 5 6 6 6 6 6
19 10 10 10 10 9 9 8 7 8 7 7 7 7 7 7 6 5 5 6 7 7 6 6 6 6 5 7 11 8 7 7 6 6 6 7 7 6
13 9 10 10 9 9 8 8 9 8 7 7 7 7 6 6 6 5 5 6 7 7 6 6 7 7 8 8 7 13 9 7 6 7 7 7 8 7
8 9 10 10 9 9 8 8 8 8 7 7 6 6 6 6 6 6 6 7 7 6 6 6 7 9 10 8 5 5 14 9 8 8 7 6 6 8
9 9 10 9 9 9 8 8 8 8 8 7 6 6 6 6 7 6 6 10 8 6 8 8 8 11 6 4 4 5 6 14 12 8 7 6 6 6
10 10 9 9 9 9 8 8 8 8 7 7 6 6 6 6 7 7 7 6 7 6 7 5 4 5 6 8 8 7 6 6 11 17 16 12 7 8
11 10 10 9 9 8 8 9 9 8 7 7 7 7 6 6 6 6 7 7 6 6 6 5 4 5 7 7 7 6 7 7 6 8 9 16 20 18
Wind_Direction
259 259 260 259 255 254 253 251 266 280 280 266 255 259 269 274 274 269 254 256 259 259 260 261 263 263 263 261 260 258 258 258 256 253 249 245 242 239
260 262 262 262 259 254 253 255 252 264 277 273 254 254 265 274 276 276 269 269 266 265 264 263 263 264 263 262 260 258 256 255 255 253 251 248 245 242
271 271 269 267 266 262 259 259 258 258 271 278 265 258 259 264 271 270 270 266 264 266 266 266 266 265 263 262 260 259 256 254 253 251 250 249 247 243
279 278 279 279 274 272 267 263 263 259 265 276 277 265 257 259 261 262 267 267 258 265 266 266 265 265 263 262 260 258 257 255 252 251 249 248 247 246
281 281 281 281 279 276 271 270 268 268 262 270 276 271 262 257 261 262 261 261 261 264 265 265 265 264 264 262 260 258 256 254 252 250 250 249 248 246
278 277 277 276 276 275 274 271 269 266 263 265 271 271 266 255 252 258 262 254 258 259 260 260 262 263 263 262 261 260 257 255 252 249 247 246 247 247
277 275 275 277 277 280 279 274 267 266 265 264 267 269 265 258 253 251 258 259 255 249 252 254 256 255 257 261 261 262 259 255 253 249 246 244 242 242
283 281 281 282 283 285 285 286 283 278 275 271 271 268 267 261 257 255 258 261 263 229 239 251 240 245 242 238 253 257 258 257 254 251 248 245 242 239
284 284 287 286 289 283 284 285 284 282 279 277 275 273 273 266 260 261 258 259 261 241 231 252 241 246 242 246 251 253 255 255 255 254 250 246 243 239
280 279 280 281 281 284 280 277 274 274 274 274 267 267 267 264 253 256 260 261 261 248 233 253 247 245 244 236 247 249 252 254 255 254 252 248 244 240
282 281 283 282 285 290 288 283 281 277 278 275 271 269 268 267 263 257 251 254 260 250 221 236 244 240 237 236 240 245 249 251 252 251 250 249 246 242
285 279 285 288 290 292 289 283 285 284 279 278 274 272 272 271 270 257 251 258 262 257 216 217 228 218 240 234 227 232 242 249 250 249 249 248 245 241
290 288 282 291 293 294 293 286 283 286 280 275 272 266 261 257 255 248 238 243 252 252 213 201 213 210 220 233 224 219 218 227 238 246 249 247 244 238
293 291 286 293 294 295 295 290 291 294 287 283 276 270 264 259 251 244 241 240 239 242 225 206 215 212 216 224 229 219 213 212 213 221 226 244 246 242
290 292 295 298 300 299 294 294 295 290 282 278 275 272 263 259 254 251 246 242 243 240 229 217 220 218 218 223 218 202 204 214 209 213 216 221 224 230
292 291 294 296 295 291 292 292 283 274 277 274 274 273 270 264 258 247 245 241 244 245 228 219 221 221 227 224 220 213 195 200 205 209 212 219 218 212
296 292 289 290 286 283 283 282 277 276 278 268 268 270 272 269 262 247 240 238 237 239 234 220 221 225 227 223 227 223 211 208 204 199 203 220 225 217
302 295 294 290 289 289 290 291 286 282 276 269 265 266 269 265 260 248 240 240 244 242 233 217 209 218 226 233 225 226 217 213 207 198 198 214 229 224
299 292 290 288 288 287 287 288 287 282 278 274 269 266 266 264 261 253 246 244 245 243 232 214 207 214 226 234 228 215 214 210 202 206 208 213 225 223
283 284 286 286 286 285 285 286 287 284 279 275 269 264 260 262 260 254 247 245 246 241 235 222 214 214 222 226 221 217 212 208 208 214 214 216 228 233
288 284 284 284 284 284 283 282 282 281 278 273 268 262 259 258 257 253 248 251 249 242 237 232 228 224 216 199 224 227 220 216 214 213 204 210 221 222
287 286 285 283 283 281 280 279 279 277 276 272 268 263 258 255 256 251 247 248 247 244 244 239 216 209 205 218 230 229 223 220 227 230 226 217 211 214
288 286 286 284 282 279 277 276 274 273 270 268 265 262 257 256 254 250 246 244 244 243 243 237 219 212 216 219 226 227 223 220 220 227 234 235 237 240
Height
1459 1456 1454 1451 1449 1447 1445 1443 1439 1428 1420 1421 1423 1424 1425 1425 1423 1422 1419 1419 1419 1418 1417 1417 1416 1416 1416 1416 1417 1419 1422 1425 1428 1431 1434 1438 1442 1446
1451 1447 1444 1442 1440 1438 1436 1434 1431 1425 1414 1410 1412 1414 1414 1414 1413 1412 1410 1409 1408 1408 1408 1407 1407 1406 1406 1406 1406 1408 1410 1412 1416 1419 1423 1426 1430 1434
1442 1439 1435 1433 1430 1428 1426 1423 1421 1418 1409 1401 1402 1403 1403 1402 1402 1401 1400 1399 1398 1398 1398 1397 1397 1396 1396 1396 1396 1397 1399 1401 1404 1407 1411 1415 1419 1422
1433 1430 1426 1424 1420 1418 1415 1412 1410 1408 1404 1395 1391 1392 1392 1392 1391 1390 1389 1388 1387 1387 1387 1387 1386 1386 1385 1385 1386 1386 1388 1390 1392 1396 1399 1403 1407 1411
1423 1420 1417 1414 1410 1408 1405 1402 1399 1397 1394 1389 1383 1382 1381 1381 1380 1379 1378 1377 1377 1376 1376 1376 1375 1375 1375 1375 1375 1376 1377 1379 1381 1384 1388 1392 1396 1399
1414 1410 1407 1404 1400 1397 1394 1391 1389 1386 1383 1380 1375 1372 1371 1370 1370 1368 1366 1366 1365 1365 1365 1365 1364 1364 1364 1365 1365 1366 1367 1368 1370 1373 1376 1380 1384 1388
1403 1400 1397 1394 1391 1388 1385 1381 1379 1375 1372 1369 1365 1363 1361 1361 1360 1359 1357 1355 1354 1355 1354 1353 1354 1353 1353 1354 1355 1355 1356 1358 1360 1363 1365 1369 1373 1377
1394 1390 1387 1384 1381 1378 1375 1372 1370 1367 1363 1360 1356 1353 1351 1351 1350 1349 1348 1346 1343 1345 1345 1342 1344 1342 1343 1344 1345 1346 1346 1348 1350 1352 1355 1359 1362 1366
1385 1381 1377 1374 1372 1368 1364 1361 1359 1356 1355 1352 1347 1344 1343 1342 1342 1340 1339 1337 1334 1335 1336 1332 1334 1332 1333 1334 1336 1337 1338 1339 1340 1342 1345 1348 1352 1356
1377 1373 1369 1364 1362 1359 1354 1350 1347 1345 1343 1341 1338 1335 1334 1333 1332 1331 1329 1327 1326 1326 1327 1324 1324 1324 1325 1325 1327 1328 1329 1330 1332 1333 1336 1339 1343 1346
1368 1364 1361 1356 1353 1351 1347 1342 1337 1334 1333 1330 1328 1326 1324 1323 1323 1321 1319 1318 1316 1316 1317 1316 1315 1316 1316 1316 1318 1320 1321 1322 1324 1325 1328 1331 1334 1338
1359 1355 1353 1349 1345 1342 1339 1334 1329 1325 1323 1320 1318 1316 1314 1313 1313 1313 1311 1310 1308 1307 1307 1308 1308 1309 1308 1308 1310 1312 1313 1315 1316 1318 1320 1323 1326 1329
1351 1347 1343 1341 1337 1334 1331 1326 1322 1318 1314 1311 1308 1306 1304 1303 1302 1302 1302 1302 1301 1300 1300 1301 1301 1302 1302 1302 1303 1305 1306 1308 1309 1311 1313 1315 1318 1321
1343 1339 1335 1332 1328 1325 1321 1317 1314 1310 1306 1303 1300 1297 1296 1295 1294 1293 1293 1292 1292 1292 1293 1294 1294 1295 1296 1296 1297 1298 1300 1302 1303 1305 1306 1308 1311 1314
1336 1332 1328 1324 1320 1315 1311 1308 1305 1302 1298 1295 1292 1290 1289 1287 1286 1285 1285 1284 1284 1285 1285 1287 1288 1289 1290 1290 1291 1293 1294 1296 1298 1299 1301 1303 1305 1308
1328 1323 1319 1315 1311 1306 1303 1299 1296 1294 1291 1288 1285 1283 1282 1280 1279 1278 1278 1278 1277 1277 1278 1280 1281 1282 1283 1284 1286 1286 1288 1290 1292 1294 1296 1297 1300 1302
1320 1315 1310 1306 1302 1298 1295 1292 1289 1286 1284 1281 1279 1277 1275 1274 1273 1272 1272 1272 1272 1271 1272 1273 1274 1276 1277 1279 1280 1281 1282 1284 1286 1289 1291 1292 1294 1296
1313 1307 1303 1299 1295 1291 1288 1285 1282 1280 1277 1275 1273 1271 1270 1268 1267 1267 1266 1266 1266 1266 1266 1267 1269 1270 1271 1272 1273 1274 1276 1278 1280 1283 1285 1287 1288 1291
1305 1300 1296 1292 1289 1285 1282 1279 1276 1273 1271 1269 1267 1265 1264 1263 1262 1261 1261 1260 1260 1260 1261 1262 1263 1264 1265 1265 1265 1268 1270 1272 1274 1276 1278 1280 1281 1284
1298 1294 1290 1286 1282 1279 1276 1273 1270 1267 1265 1263 1261 1259 1258 1257 1256 1255 1255 1255 1255 1255 1255 1256 1257 1257 1258 1259 1260 1261 1264 1266 1268 1269 1271 1273 1275 1278
1290 1287 1283 1279 1276 1273 1270 1267 1264 1261 1259 1257 1255 1254 1253 1252 1251 1250 1249 1249 1249 1249 1249 1249 1250 1252 1253 1254 1255 1254 1257 1259 1261 1263 1265 1267 1269 1270
1284 1280 1276 1273 1269 1266 1263 1260 1257 1255 1253 1251 1249 1248 1247 1246 1245 1244 1244 1243 1243 1243 1243 1243 1245 1246 1247 1247 1247 1248 1250 1253 1255 1257 1259 1260 1261 1261
1277 1273 1269 1265 1262 1259 1256 1253 1251 1249 1247 1245 1243 1242 1241 1240 1239 1238 1238 1237 1237 1237 1237 1237 1238 1239 1240 1240 1241 1242 1243 1245 1247 1249 1250 1252 1254 1256